User: anonymous   Login
Location: La Pernelle
(49.6188°N, 1.2999°W)
Time: 03:24:38
(UTC+00:00)
Language:

ATLAS CENTAUR R/B - Orbit

View from above orbital plane
View from above orbital plane
View from above satellite
View from above satellite

Ground track
Ground track

The orbit data is extracted from the following two-line orbital elements,

1 38770U 12048N   21262.78386966 0.00002000  00000-0  12634-3 0    00
2 38770  64.6555 151.3768 0160928 341.4252  18.5748 14.98615553    06
Epoch (UTC): 19 September 2021 18:48:46
Eccentricity: 0.0160928
inclination: 64.6555°
perigee height: 459 km
apogee height: 683 km
right ascension of ascending node: 151.3768°
argument of perigee: 341.4252°
revolutions per day: 14.98615553
mean anomaly at epoch: 18.5748°
orbit number at epoch: 0

The dashed part of the orbit path shows where the satellite is in the earth's shadow,  

DLR